Bydgoszcz Ignacy Jan Pade, Poland

8:17 AM CEST on September 22, 2017 (GMT +0200)
Szwederowo

Weather History for EPBY - September, 2017

Change the Weather History Date:

Wednesday, September 13, 2017

  Actual Average Record
Temperature  
Mean Temperature 55 °F -  
Max Temperature 60 °F - - ()
Min Temperature 50 °F - - ()
Degree Days  
Heating Degree Days 10    
Growing Degree Days 5 (Base 50)    
Moisture  
Dew Point 50 °F    
Average Humidity 82    
Maximum Humidity 94    
Minimum Humidity 63    
Precipitation  
Precipitation 0.00 in - - ()
Sea Level Pressure  
Sea Level Pressure 29.61 in    
Wind  
Wind Speed 11 mph ()    
Max Wind Speed 22 mph    
Max Gust Speed 34 mph    
Visibility 6.2 miles    
Events      
T = Trace of Precipitation, MM = Missing Value Source: Averaged Metar Reports

Daily Weather History Graph

Daily Weather History Graph

Search for Another Location

Airport or City:

Trip Planner

Search our weather history database for the weather conditions in past years. The results will help you decide how hot, cold, wet, or windy it might be!

Date:

Astronomy

Sep. 13, 2017 Rise Set
Actual Time 6:18 AM CEST 7:08 PM CEST
Civil Twilight 5:43 AM CEST 7:43 PM CEST
Nautical Twilight 5:01 AM CEST 8:25 PM CEST
Astronomical Twilight 4:15 AM CEST 9:10 PM CEST
Moon 11:24 PM CEST (9/13) 2:39 PM CEST (9/13)
Length of Visible Light 13h 59m
Length of Day
12h 49m
Waning Gibbous, 48% of the Moon is Illuminated
Sep 13
Waning Gibbous
Sep 20
New
Sep 28
First Quarter
Oct 5
Full
Oct 12
Last Quarter

Hourly Weather History & Observations

Time (CEST) Temp. Dew Point Humidity Pressure Visibility Wind Dir Wind Speed Gust Speed Precip Events Conditions
12:00 AM 53.6 °F 50.0 °F 88% 29.74 in - WSW 9.2 mph - N/A   Clear
12:30 AM 53.6 °F 50.0 °F 88% 29.74 in - SW 8.1 mph - N/A   Clear
1:00 AM 53.6 °F 50.0 °F 88% 29.74 in - SW 9.2 mph - N/A   Clear
1:30 AM 53.6 °F 50.0 °F 88% 29.74 in - SW 8.1 mph - N/A   Clear
2:00 AM 51.8 °F 50.0 °F 94% 29.74 in - SW 9.2 mph - N/A   Clear
2:30 AM 51.8 °F 50.0 °F 94% 29.74 in - SW 9.2 mph - N/A   Clear
3:00 AM 51.8 °F 48.2 °F 88% 29.74 in - WSW 8.1 mph - N/A   Clear
3:30 AM 51.8 °F 48.2 °F 88% 29.74 in - WSW 9.2 mph - N/A   Clear
4:00 AM 51.8 °F 48.2 °F 88% 29.74 in - SW 9.2 mph - N/A   Clear
4:30 AM 50.0 °F 48.2 °F 94% 29.74 in - SW 10.4 mph - N/A   Clear
5:00 AM 50.0 °F 48.2 °F 94% 29.74 in - SW 9.2 mph - N/A   Clear
5:30 AM 50.0 °F 48.2 °F 94% 29.74 in - SW 8.1 mph - N/A   Clear
6:00 AM 50.0 °F 48.2 °F 94% 29.74 in - SW 9.2 mph - N/A   Clear
7:00 AM 50.0 °F 48.2 °F 94% 29.74 in - SW 9.2 mph - N/A   Clear
7:30 AM 50.0 °F 48.2 °F 94% 29.71 in - SW 10.4 mph - N/A   Clear
8:30 AM 53.6 °F 48.2 °F 82% 29.71 in - SW 11.5 mph - N/A   Clear
9:30 AM 55.4 °F 48.2 °F 77% 29.71 in 6.2 mi SW 12.7 mph - N/A   Partly Cloudy
10:30 AM 59.0 °F 50.0 °F 72% 29.68 in 6.2 mi SSW 15.0 mph - N/A   Partly Cloudy
12:30 PM 60.8 °F 50.0 °F 68% 29.62 in 6.2 mi SW 16.1 mph - N/A   Mostly Cloudy
1:00 PM 60.8 °F 48.2 °F 63% 29.62 in 6.2 mi SSW 12.7 mph - N/A   Scattered Clouds
1:30 PM 60.8 °F 48.2 °F 63% 29.59 in 6.2 mi SSW 16.1 mph 28.8 mph N/A   Scattered Clouds
3:00 PM 60.8 °F 48.2 °F 63% 29.56 in 6.2 mi SSW 17.3 mph - N/A   Mostly Cloudy
4:00 PM 55.4 °F 51.8 °F 88% 29.53 in 6.2 mi SSW 15.0 mph - N/A   Mostly Cloudy
4:30 PM 57.2 °F 51.8 °F 82% 29.53 in 6.2 mi SSW 13.8 mph 26.5 mph N/A   Mostly Cloudy
5:00 PM 59.0 °F 51.8 °F 77% 29.50 in 6.2 mi South 16.1 mph - N/A   Mostly Cloudy
5:30 PM 59.0 °F 51.8 °F 77% 29.47 in 6.2 mi South 16.1 mph - N/A   Mostly Cloudy
6:00 PM 59.0 °F 51.8 °F 77% 29.44 in 6.2 mi SSW 13.8 mph - N/A   Scattered Clouds
6:30 PM 60.8 °F 51.8 °F 72% 29.44 in 6.2 mi SSW 15.0 mph - N/A   Scattered Clouds
7:00 PM 60.8 °F 50.0 °F 68% 29.42 in 6.2 mi SSW 15.0 mph - N/A   Scattered Clouds
7:30 PM 60.8 °F 51.8 °F 72% 29.44 in 6.2 mi SSW 19.6 mph - N/A   Scattered Clouds
8:00 PM 59.0 °F 51.8 °F 77% 29.44 in 6.2 mi SW 17.3 mph - N/A   Scattered Clouds
8:30 PM 59.0 °F 51.8 °F 77% 29.44 in 6.2 mi SW 17.3 mph 32.2 mph N/A   Partly Cloudy
9:00 PM 59.0 °F 51.8 °F 77% 29.44 in - SW 21.9 mph 34.5 mph N/A   Clear
9:30 PM 59.0 °F 51.8 °F 77% 29.44 in - SW 17.3 mph - N/A   Clear
10:30 PM 57.2 °F 51.8 °F 82% 29.47 in - SW 16.1 mph - N/A   Clear
11:00 PM 57.2 °F 51.8 °F 82% 29.47 in - SW 16.1 mph - N/A   Clear
11:30 PM 59.0 °F 51.8 °F 77% 29.47 in 6.2 mi SW 17.3 mph - N/A   Partly Cloudy